AirNav   Pilot Hours Calculator
 
 1066 users online  

M90 William Robert Johnston Municipal Airport
Mendota, California, USA

GOING TO MENDOTA?


FAA INFORMATION EFFECTIVE 31 DECEMBER 2020

Location

FAA Identifier: M90
Lat/Long: 36-45-31.0000N 120-22-17.0000W
36-45.516667N 120-22.283333W
36.7586111,-120.3713889
(estimated)
Elevation: 162 ft. / 49 m (estimated)
Variation: 15E (1985)
Time zone: UTC -8 (UTC -7 during Daylight Saving Time)
Zip code: 93640

Airport Operations

Airport use: Open to the public
Activation date: 08/1957
Control tower: no
ARTCC: OAKLAND CENTER
FSS: RANCHO MURIETA FLIGHT SERVICE STATION
NOTAMs facility: RIU (NOTAM-D service available)
Attendance: UNATNDD
Wind indicator: yes
Segmented circle: yes

Airport Communications

CTAF: 122.9
WX ASOS at MAE (19 nm NE): 134.725 (559-674-1781)

Nearby radio navigation aids

VOR radial/distance  VOR name  Freq  Var
PXNr066/19.8PANOCHE VORTAC112.6016E
HYPr162/27.7EL NIDO VOR/DME114.2015E

Airport Services

Parking: tiedowns

Runway Information

Runway 15/33

Dimensions: 3499 x 50 ft. / 1066 x 15 m
Surface: asphalt, in fair condition
Weight bearing capacity: 
Single wheel: 12.5
RUNWAY 15  RUNWAY 33
Latitude: 36-45.798333N36-45.251500N
Longitude: 120-22.404667W120-22.177167W
Traffic pattern: leftright
Displaced threshold: no777 ft.
Markings: basic, in fair conditionbasic, in fair condition
Runway end identifier lights: nono
Obstructions: none17 ft. bldg, 423 ft. from runway, 190 ft. left of centerline, 13:1 slope to clear
APCH RATIO TO DSPLCD THR 50:1.

Airport Ownership and Management from official FAA records

Ownership: Publicly-owned
Owner: CITY OF MENDOTA
643 QUINCE ST
MENDOTA, CA 93640-2334
Phone 559-655-4298
Manager: CRISTIAN GONZALES
643 QUINCE ST
MENDOTA, CA 93640-2334
Phone (559) 655-4298
CITY MANAGER X 109.

Airport Operational Statistics

Aircraft operations: avg 77/week *
50% transient general aviation
50% local general aviation
* for 12-month period ending 12 April 2019

Additional Remarks

ARPT CLSD NIGHTS.
FOR CD CTC NORCAL APCH AT 916-361-0516.
PARL TWY ROUGH/UNEVEN SFC; EXTSV ASPH RPR AND PATCHING.

Instrument Procedures

There are no published instrument procedures at M90.

Some nearby airports with instrument procedures:

F34 - Firebaugh Airport (8 nm NW)
KMAE - Madera Municipal Airport (19 nm NE)
KFCH - Fresno Chandler Exec Airport (27 nm E)
KLSN - Los Banos Municipal Airport (30 nm NW)
KFAT - Fresno Yosemite International Airport (31 nm E)
 
Loc | Ops | Rwys | IFR | FBO | Links
Com | Nav | Svcs | Stats | Notes
Area around M90 (William Robert Johnston Municipal Airport)
 
Road maps at: MapQuest Bing Google
 
Aerial photo
WARNING: Photo may not be current or correct
Aerial photo of M90 (William Robert Johnston Municipal Airport)
Do you have a better or more recent aerial photo of William Robert Johnston Municipal Airport that you would like to share? If so, please send us your photo.

 
Sectional chart

 
Airport distance calculator
Flying to William Robert Johnston Municipal Airport? Find the distance to fly.

From to M90

Sunrise and sunset
Times for 21-Jan-2021
 Local
(UTC-8)
 Zulu
(UTC)
Morning civil twilight06:4414:44
Sunrise07:1215:12
Sunset17:1401:14
Evening civil twilight17:4201:42

Current date and time
Zulu (UTC)  22-Jan-2021 01:40:41
Local (UTC-8)  21-Jan-2021 17:40:41
 
METAR
KMAE 
18nm NE 
220053Z AUTO 00000KT 10SM CLR 19/M01 A2999 RMK AO2 SLP154 T01891011
KFAT 
32nm E 
220053Z 14004KT 10SM FEW200 19/M03 A2998 RMK AO2 SLP151 T01891028
KMCE 
32nm N 
220053Z AUTO 00000KT 9SM CLR 16/01 A2997 RMK AO2 SLP149 T01610006
KNLC 
33nm SE 
220056Z 13005KT 9SM SCT250 17/M02 A2998 RMK AO2 SLP153 RH/25 T01721017
TAF
KFAT 
32nm E 
211720Z 2118/2218 VRB04KT P6SM FEW250 FM220500 VRB04KT P6SM BKN250 FM221400 VRB04KT P6SM SCT100 BKN250
KMCE 
32nm N 
211720Z 2118/2218 VRB04KT P6SM FEW250 FM220300 VRB04KT P6SM BKN250 FM221200 VRB04KT P6SM SCT100 BKN250
KNLC 
33nm SE 
TAF 2123/2223 VRB05KT 9999 SCT240 QNH2995INS BECMG 2204/2205 32009KT 9999 FEW055 SCT080 BKN240 QNH2988INS FM221800 15009KT 9999 VCSH BKN045 BKN075 QNH2979INS FM222100 33011KT 6000 -SHRA OVC045 QNH2974INS T05/2213Z T14/2223Z FS30067
KMER 
39nm N 
211720Z 2118/2218 VRB04KT P6SM FEW250 FM220300 VRB04KT P6SM BKN250 FM221200 VRB04KT P6SM SCT100 BKN250
NOTAMs
Click for the latest NOTAMs
NOTAMs are issued by the DoD/FAA and will open in a separate window not controlled by AirNav.

 

 
 

Would you like to see your business listed on this page?

 If your business provides an interesting product or service to pilots, flight crews, aircraft, or users of the William Robert Johnston Municipal Airport, you should consider listing it here.  To start the listing process, click on the button below
 
Add a business
 

Other Pages about William Robert Johnston Municipal Airport

Update a link
 
Copyright © AirNav, LLC. All rights reserved. Privacy Policy  Contact